Time,TemperatureF,DewpointF,PressureIn,WindDirection,WindDirectionDegrees,WindSpeedMPH,WindSpeedGustMPH,Humidity,HourlyPrecipIn,Conditions,Clouds,dailyrainin,SoftwareType,DateUTC
2013-02-16 00:00:00,29.1,26.3,30.06,NW,317,5.0,10.0,89,0.00,,---,0.00,VWS V13.01,2013-02-16 05:00:00,
2013-02-16 00:05:00,29.0,26.2,30.06,NW,314,0.0,6.0,89,0.00,,---,0.00,VWS V13.01,2013-02-16 05:05:00,
2013-02-16 00:10:00,28.9,26.1,30.06,NNW,344,3.0,6.0,89,0.00,,---,0.00,VWS V13.01,2013-02-16 05:10:00,
2013-02-16 00:15:00,28.8,26.0,30.06,NW,318,1.0,6.0,89,0.00,,---,0.00,VWS V13.01,2013-02-16 05:15:00,
2013-02-16 00:20:00,28.7,25.9,30.06,NNE,24,1.0,6.0,89,0.00,,---,0.00,VWS V13.01,2013-02-16 05:20:00,
2013-02-16 00:23:00,28.7,25.9,30.05,NE,47,0.0,6.0,89,0.00,,---,0.00,VWS V13.01,2013-02-16 05:23:00,
2013-02-16 00:28:00,28.7,25.9,30.06,NE,34,0.0,6.0,89,0.00,,---,0.00,VWS V13.01,2013-02-16 05:28:00,
2013-02-16 00:33:00,28.6,25.8,30.06,NW,325,1.0,2.0,89,0.00,,---,0.00,VWS V13.01,2013-02-16 05:33:00,
2013-02-16 00:38:00,28.5,25.7,30.06,NW,321,0.0,2.0,89,0.00,,---,0.00,VWS V13.01,2013-02-16 05:38:00,
2013-02-16 00:43:00,28.5,25.7,30.07,NW,321,0.0,2.0,89,0.00,,---,0.00,VWS V13.01,2013-02-16 05:43:00,
2013-02-16 00:48:00,28.5,26.0,30.07,NW,321,0.0,2.0,90,0.00,,---,0.00,VWS V13.01,2013-02-16 05:48:00,
2013-02-16 00:53:00,28.5,26.0,30.07,West,270,2.0,4.0,90,0.00,,---,0.00,VWS V13.01,2013-02-16 05:53:00,
2013-02-16 00:58:00,28.5,26.0,30.06,West,278,0.0,4.0,90,0.00,,---,0.00,VWS V13.01,2013-02-16 05:58:00,
2013-02-16 01:03:00,28.4,25.9,30.06,NW,315,1.0,4.0,90,0.00,,---,0.00,VWS V13.01,2013-02-16 06:03:00,
2013-02-16 01:08:00,28.4,25.9,30.06,WNW,297,0.0,4.0,90,0.00,,---,0.00,VWS V13.01,2013-02-16 06:08:00,
2013-02-16 01:13:00,28.4,25.9,30.06,WNW,297,0.0,4.0,90,0.00,,---,0.00,VWS V13.01,2013-02-16 06:13:00,
2013-02-16 01:18:00,28.4,25.9,30.06,WNW,297,0.0,4.0,90,0.00,,---,0.00,VWS V13.01,2013-02-16 06:18:00,
2013-02-16 01:23:00,28.3,25.8,30.07,WNW,295,2.0,4.0,90,0.00,,---,0.00,VWS V13.01,2013-02-16 06:23:00,
2013-02-16 01:28:00,28.2,25.4,30.06,WNW,287,1.0,5.0,89,0.00,,---,0.00,VWS V13.01,2013-02-16 06:28:00,
2013-02-16 01:33:00,28.0,24.9,30.06,WNW,303,1.0,4.0,88,0.00,,---,0.00,VWS V13.01,2013-02-16 06:33:00,
2013-02-16 01:38:00,27.9,24.3,30.06,WNW,298,3.0,4.0,86,0.00,,---,0.00,VWS V13.01,2013-02-16 06:38:00,
2013-02-16 01:43:00,27.8,23.9,30.06,WNW,291,1.0,4.0,85,0.00,,---,0.00,VWS V13.01,2013-02-16 06:43:00,
2013-02-16 01:48:00,27.6,23.7,30.06,West,281,2.0,4.0,85,0.00,,---,0.00,VWS V13.01,2013-02-16 06:48:00,
2013-02-16 01:53:00,27.6,23.7,30.06,WNW,296,1.0,4.0,85,0.00,,---,0.00,VWS V13.01,2013-02-16 06:53:00,
2013-02-16 01:58:00,27.5,23.6,30.06,NW,311,2.0,4.0,85,0.00,,---,0.00,VWS V13.01,2013-02-16 06:58:00,
2013-02-16 02:03:00,27.4,23.2,30.06,WNW,300,2.0,4.0,84,0.00,,---,0.00,VWS V13.01,2013-02-16 07:03:00,
2013-02-16 02:08:00,27.3,23.1,30.06,NW,307,0.0,5.0,84,0.00,,---,0.00,VWS V13.01,2013-02-16 07:08:00,
2013-02-16 02:13:00,27.2,23.0,30.06,WNW,302,2.0,6.0,84,0.00,,---,0.00,VWS V13.01,2013-02-16 07:13:00,
2013-02-16 02:18:00,27.0,22.8,30.06,NW,324,4.0,6.0,84,0.00,,---,0.00,VWS V13.01,2013-02-16 07:18:00,
2013-02-16 02:23:00,26.9,22.7,30.06,NNW,327,3.0,6.0,84,0.00,,---,0.00,VWS V13.01,2013-02-16 07:23:00,
2013-02-16 02:28:00,26.7,22.2,30.06,West,275,3.0,6.0,83,0.00,,---,0.00,VWS V13.01,2013-02-16 07:28:00,
2013-02-16 02:33:00,26.7,22.2,30.06,NW,326,4.0,6.0,83,0.00,,---,0.00,VWS V13.01,2013-02-16 07:33:00,
2013-02-16 02:38:00,26.6,22.1,30.06,WNW,302,5.0,6.0,83,0.00,,---,0.00,VWS V13.01,2013-02-16 07:38:00,
2013-02-16 02:43:00,26.5,22.3,30.06,WNW,286,1.0,7.0,84,0.00,,---,0.00,VWS V13.01,2013-02-16 07:43:00,
2013-02-16 02:48:00,26.5,22.3,30.05,NW,313,2.0,7.0,84,0.00,,---,0.00,VWS V13.01,2013-02-16 07:48:00,
2013-02-16 02:53:00,26.4,22.5,30.06,NW,314,3.0,7.0,85,0.00,,---,0.00,VWS V13.01,2013-02-16 07:53:00,
2013-02-16 02:58:00,26.2,22.3,30.06,WSW,257,3.0,7.0,85,0.00,,---,0.00,VWS V13.01,2013-02-16 07:58:00,
2013-02-16 03:03:00,26.1,22.5,30.05,NNW,330,0.0,7.0,86,0.00,,---,0.00,VWS V13.01,2013-02-16 08:03:00,
2013-02-16 03:08:00,26.1,22.5,30.05,NW,307,1.0,7.0,86,0.00,,---,0.00,VWS V13.01,2013-02-16 08:08:00,
2013-02-16 03:13:00,26.0,22.4,30.05,WSW,248,4.0,7.0,86,0.00,,---,0.00,VWS V13.01,2013-02-16 08:13:00,
2013-02-16 03:18:00,25.9,22.3,30.05,NW,323,4.0,7.0,86,0.00,,---,0.00,VWS V13.01,2013-02-16 08:18:00,
2013-02-16 03:23:00,25.8,22.2,30.05,NW,313,0.0,7.0,86,0.00,,---,0.00,VWS V13.01,2013-02-16 08:23:00,
2013-02-16 03:28:00,25.8,22.2,30.05,NW,311,2.0,7.0,86,0.00,,---,0.00,VWS V13.01,2013-02-16 08:28:00,
2013-02-16 03:33:00,25.7,22.1,30.05,NW,320,2.0,5.0,86,0.00,,---,0.00,VWS V13.01,2013-02-16 08:33:00,
2013-02-16 03:38:00,25.6,22.3,30.05,WNW,300,2.0,5.0,87,0.00,,---,0.00,VWS V13.01,2013-02-16 08:38:00,
2013-02-16 03:43:00,25.6,22.3,30.05,WNW,290,2.0,5.0,87,0.00,,---,0.00,VWS V13.01,2013-02-16 08:43:00,
2013-02-16 03:48:00,25.5,22.2,30.05,WNW,297,4.0,7.0,87,0.00,,---,0.00,VWS V13.01,2013-02-16 08:48:00,
2013-02-16 03:53:00,25.4,21.8,30.05,NNW,337,1.0,7.0,86,0.00,,---,0.00,VWS V13.01,2013-02-16 08:53:00,
2013-02-16 03:58:00,25.4,21.8,30.05,NW,311,2.0,7.0,86,0.00,,---,0.00,VWS V13.01,2013-02-16 08:58:00,
2013-02-16 04:03:00,25.3,21.7,30.05,NW,317,0.0,4.0,86,0.00,,---,0.00,VWS V13.01,2013-02-16 09:03:00,
2013-02-16 04:08:00,25.2,21.6,30.05,NW,309,1.0,5.0,86,0.00,,---,0.00,VWS V13.01,2013-02-16 09:08:00,
2013-02-16 04:13:00,25.1,21.5,30.05,WNW,302,3.0,5.0,86,0.00,,---,0.00,VWS V13.01,2013-02-16 09:13:00,
2013-02-16 04:18:00,25.1,21.8,30.05,NW,311,2.0,6.0,87,0.00,,---,0.00,VWS V13.01,2013-02-16 09:18:00,
2013-02-16 04:23:00,25.0,21.7,30.05,WNW,287,2.0,6.0,87,0.00,,---,0.00,VWS V13.01,2013-02-16 09:23:00,
2013-02-16 04:28:00,24.9,21.9,30.05,West,277,0.0,6.0,88,0.00,,---,0.00,VWS V13.01,2013-02-16 09:28:00,
2013-02-16 04:33:00,24.9,21.9,30.05,WNW,298,0.0,4.0,88,0.00,,---,0.00,VWS V13.01,2013-02-16 09:33:00,
2013-02-16 04:38:00,24.9,21.9,30.05,WNW,297,2.0,4.0,88,0.00,,---,0.00,VWS V13.01,2013-02-16 09:38:00,
2013-02-16 04:43:00,24.9,21.9,30.06,WNW,292,2.0,4.0,88,0.00,,---,0.00,VWS V13.01,2013-02-16 09:43:00,
2013-02-16 04:48:00,24.8,21.5,30.06,WNW,284,0.0,4.0,87,0.00,,---,0.00,VWS V13.01,2013-02-16 09:48:00,
2013-02-16 04:53:00,24.8,21.5,30.06,NW,315,2.0,4.0,87,0.00,,---,0.00,VWS V13.01,2013-02-16 09:53:00,
2013-02-16 04:58:00,24.7,21.4,30.06,NW,315,2.0,4.0,87,0.00,,---,0.00,VWS V13.01,2013-02-16 09:58:00,
2013-02-16 05:03:00,24.6,21.3,30.06,NW,318,0.0,3.0,87,0.00,,---,0.00,VWS V13.01,2013-02-16 10:03:00,
2013-02-16 05:08:00,24.5,21.2,30.06,NW,318,0.0,3.0,87,0.00,,---,0.00,VWS V13.01,2013-02-16 10:08:00,
2013-02-16 05:13:00,24.4,20.8,30.06,NW,318,0.0,3.0,86,0.00,,---,0.00,VWS V13.01,2013-02-16 10:13:00,
2013-02-16 05:18:00,24.2,20.6,30.06,NW,309,1.0,3.0,86,0.00,,---,0.00,VWS V13.01,2013-02-16 10:18:00,
2013-02-16 05:23:00,24.0,20.4,30.06,NW,305,2.0,3.0,86,0.00,,---,0.00,VWS V13.01,2013-02-16 10:23:00,
2013-02-16 05:28:00,23.8,20.2,30.05,NW,309,1.0,3.0,86,0.00,,---,0.00,VWS V13.01,2013-02-16 10:28:00,
2013-02-16 05:33:00,23.8,20.5,30.05,NW,309,0.0,2.0,87,0.00,,---,0.00,VWS V13.01,2013-02-16 10:33:00,
2013-02-16 05:38:00,23.6,20.3,30.06,WNW,297,0.0,4.0,87,0.00,,---,0.00,VWS V13.01,2013-02-16 10:38:00,
2013-02-16 05:43:00,23.4,20.1,30.06,WNW,297,0.0,4.0,87,0.00,,---,0.00,VWS V13.01,2013-02-16 10:43:00,
2013-02-16 05:48:00,23.2,19.9,30.05,WNW,297,0.0,4.0,87,0.00,,---,0.00,VWS V13.01,2013-02-16 10:48:00,
2013-02-16 05:53:00,22.9,19.4,30.05,WNW,297,0.0,4.0,86,0.00,,---,0.00,VWS V13.01,2013-02-16 10:53:00,
2013-02-16 05:58:00,22.6,19.3,30.05,WNW,297,0.0,4.0,87,0.00,,---,0.00,VWS V13.01,2013-02-16 10:58:00,
2013-02-16 06:03:00,22.3,19.0,30.05,WNW,297,0.0,0.0,87,0.00,,---,0.00,VWS V13.01,2013-02-16 11:03:00,
2013-02-16 06:08:00,21.9,18.6,30.05,WNW,297,0.0,0.0,87,0.00,,---,0.00,VWS V13.01,2013-02-16 11:08:00,
2013-02-16 06:13:00,21.6,18.3,30.06,WNW,297,0.0,0.0,87,0.00,,---,0.00,VWS V13.01,2013-02-16 11:13:00,
2013-02-16 06:18:00,21.3,18.3,30.05,WNW,297,1.0,1.0,88,0.00,,---,0.00,VWS V13.01,2013-02-16 11:18:00,
2013-02-16 06:23:00,21.0,18.0,30.05,WNW,297,0.0,1.0,88,0.00,,---,0.00,VWS V13.01,2013-02-16 11:23:00,
2013-02-16 06:28:00,20.7,17.7,30.05,WNW,297,0.0,1.0,88,0.00,,---,0.00,VWS V13.01,2013-02-16 11:28:00,
2013-02-16 06:33:00,20.6,17.6,30.05,WNW,297,0.0,0.0,88,0.00,,---,0.00,VWS V13.01,2013-02-16 11:33:00,
2013-02-16 06:38:00,20.4,17.7,30.05,WNW,297,0.0,0.0,89,0.00,,---,0.00,VWS V13.01,2013-02-16 11:38:00,
2013-02-16 06:43:00,20.3,17.8,30.05,WNW,297,0.0,0.0,90,0.00,,---,0.00,VWS V13.01,2013-02-16 11:43:00,
2013-02-16 06:48:00,20.5,18.3,30.05,WNW,297,0.0,0.0,91,0.00,,---,0.00,VWS V13.01,2013-02-16 11:48:00,
2013-02-16 06:53:00,20.7,18.5,30.05,WNW,297,0.0,0.0,91,0.00,,---,0.00,VWS V13.01,2013-02-16 11:53:00,
2013-02-16 06:58:00,20.8,18.6,30.05,WNW,297,0.0,1.0,91,0.00,,---,0.00,VWS V13.01,2013-02-16 11:58:00,
2013-02-16 07:03:00,20.9,18.7,30.05,WNW,297,0.0,0.0,91,0.00,,---,0.00,VWS V13.01,2013-02-16 12:03:00,
2013-02-16 07:08:00,21.1,18.9,30.05,WNW,297,0.0,0.0,91,0.00,,---,0.00,VWS V13.01,2013-02-16 12:08:00,
2013-02-16 07:13:00,21.1,18.9,30.05,WNW,297,0.0,0.0,91,0.00,,---,0.00,VWS V13.01,2013-02-16 12:13:00,
2013-02-16 07:18:00,21.1,18.9,30.06,WNW,297,0.0,0.0,91,0.00,,---,0.00,VWS V13.01,2013-02-16 12:18:00,
2013-02-16 07:23:00,21.2,19.0,30.06,WNW,297,0.0,0.0,91,0.00,,---,0.00,VWS V13.01,2013-02-16 12:23:00,
2013-02-16 07:28:00,21.3,19.3,30.06,WNW,297,0.0,0.0,92,0.00,,---,0.00,VWS V13.01,2013-02-16 12:28:00,
2013-02-16 07:33:00,21.5,19.5,30.06,WNW,297,0.0,0.0,92,0.00,,---,0.00,VWS V13.01,2013-02-16 12:33:00,
2013-02-16 07:38:00,21.5,19.5,30.06,WNW,297,0.0,0.0,92,0.00,,---,0.00,VWS V13.01,2013-02-16 12:38:00,
2013-02-16 07:43:00,21.7,19.7,30.06,WNW,297,0.0,0.0,92,0.00,,---,0.00,VWS V13.01,2013-02-16 12:43:00,
2013-02-16 07:48:00,21.8,19.8,30.06,WNW,297,0.0,0.0,92,0.00,,---,0.00,VWS V13.01,2013-02-16 12:48:00,
2013-02-16 07:53:00,21.9,19.9,30.06,WNW,297,0.0,0.0,92,0.00,,---,0.00,VWS V13.01,2013-02-16 12:53:00,
2013-02-16 07:58:00,22.1,20.1,30.06,WNW,297,0.0,0.0,92,0.00,,---,0.00,VWS V13.01,2013-02-16 12:58:00,
2013-02-16 08:03:00,22.4,20.4,30.06,WNW,297,0.0,0.0,92,0.00,,---,0.00,VWS V13.01,2013-02-16 13:03:00,
2013-02-16 08:08:00,22.6,20.6,30.06,WNW,297,0.0,0.0,92,0.00,,---,0.00,VWS V13.01,2013-02-16 13:08:00,
2013-02-16 08:13:00,22.9,20.9,30.06,WNW,297,0.0,0.0,92,0.00,,---,0.00,VWS V13.01,2013-02-16 13:13:00,
2013-02-16 08:18:00,23.2,21.2,30.06,WNW,297,0.0,0.0,92,0.00,,---,0.00,VWS V13.01,2013-02-16 13:18:00,
2013-02-16 08:23:00,23.5,21.3,30.06,WNW,297,0.0,0.0,91,0.00,,---,0.00,VWS V13.01,2013-02-16 13:23:00,
2013-02-16 08:28:00,23.8,21.6,30.06,WNW,297,0.0,0.0,91,0.00,,---,0.00,VWS V13.01,2013-02-16 13:28:00,
2013-02-16 08:33:00,24.0,21.5,30.06,WNW,297,0.0,0.0,90,0.00,,---,0.00,VWS V13.01,2013-02-16 13:33:00,
2013-02-16 08:38:00,24.3,21.8,30.06,WNW,297,0.0,0.0,90,0.00,,---,0.00,VWS V13.01,2013-02-16 13:38:00,
2013-02-16 08:43:00,24.7,21.9,30.06,WNW,297,0.0,1.0,89,0.00,,---,0.00,VWS V13.01,2013-02-16 13:43:00,
2013-02-16 08:48:00,24.7,21.4,30.06,WNW,297,0.0,1.0,87,0.00,,---,0.00,VWS V13.01,2013-02-16 13:48:00,
2013-02-16 08:54:00,24.7,21.4,30.06,WNW,297,0.0,1.0,87,0.00,,---,0.00,VWS V13.01,2013-02-16 13:54:00,
2013-02-16 08:58:00,24.8,21.2,30.06,WNW,297,1.0,1.0,86,0.00,,---,0.00,VWS V13.01,2013-02-16 13:58:00,
2013-02-16 09:03:00,24.8,21.2,30.06,WNW,297,0.0,1.0,86,0.00,,---,0.00,VWS V13.01,2013-02-16 14:03:00,
2013-02-16 09:09:00,24.9,21.0,30.06,NW,322,0.0,1.0,85,0.00,,---,0.00,VWS V13.01,2013-02-16 14:09:00,
2013-02-16 09:14:00,25.2,21.3,30.05,NNW,342,0.0,1.0,85,0.00,,---,0.00,VWS V13.01,2013-02-16 14:14:00,
2013-02-16 09:19:00,25.5,21.4,30.06,NNW,342,0.0,1.0,84,0.00,,---,0.00,VWS V13.01,2013-02-16 14:19:00,
2013-02-16 09:24:00,26.0,21.6,30.05,NNW,342,0.0,1.0,83,0.00,,---,0.00,VWS V13.01,2013-02-16 14:24:00,
2013-02-16 09:29:00,26.7,22.2,30.05,NNW,342,0.0,1.0,83,0.00,,---,0.00,VWS V13.01,2013-02-16 14:29:00,
2013-02-16 09:34:00,27.4,22.6,30.05,NNW,342,0.0,1.0,82,0.00,,---,0.00,VWS V13.01,2013-02-16 14:34:00,
2013-02-16 09:39:00,27.9,22.2,30.05,NNW,348,0.0,1.0,79,0.00,,---,0.00,VWS V13.01,2013-02-16 14:39:00,
2013-02-16 09:44:00,27.9,21.6,30.05,NNW,348,0.0,1.0,77,0.00,,---,0.00,VWS V13.01,2013-02-16 14:44:00,
2013-02-16 09:49:00,28.4,22.4,30.05,NNW,348,0.0,1.0,78,0.00,,---,0.00,VWS V13.01,2013-02-16 14:49:00,
2013-02-16 09:54:00,28.7,21.8,30.05,North,5,0.0,2.0,75,0.00,,---,0.00,VWS V13.01,2013-02-16 14:54:00,
2013-02-16 09:59:00,28.7,21.8,30.05,East,82,1.0,2.0,75,0.00,,---,0.00,VWS V13.01,2013-02-16 14:59:00,
2013-02-16 10:04:00,28.4,21.5,30.05,ENE,78,1.0,2.0,75,0.00,,---,0.00,VWS V13.01,2013-02-16 15:04:00,
2013-02-16 10:09:00,28.0,21.7,30.05,ENE,78,0.0,2.0,77,0.00,,---,0.00,VWS V13.01,2013-02-16 15:09:00,
2013-02-16 10:14:00,28.0,21.7,30.05,ENE,78,0.0,2.0,77,0.00,,---,0.00,VWS V13.01,2013-02-16 15:14:00,
2013-02-16 10:19:00,28.3,22.0,30.05,ENE,78,0.0,2.0,77,0.00,,---,0.00,VWS V13.01,2013-02-16 15:19:00,
2013-02-16 10:24:00,28.9,22.3,30.05,ENE,78,0.0,2.0,76,0.00,,---,0.00,VWS V13.01,2013-02-16 15:24:00,
2013-02-16 10:29:00,29.2,21.0,30.05,NW,314,1.0,3.0,71,0.00,,---,0.00,VWS V13.01,2013-02-16 15:29:00,
2013-02-16 10:34:00,29.1,20.5,30.05,WNW,292,4.0,7.0,70,0.00,,---,0.00,VWS V13.01,2013-02-16 15:34:00,
2013-02-16 10:39:00,28.8,20.9,30.05,WNW,290,3.0,7.0,72,0.00,,---,0.00,VWS V13.01,2013-02-16 15:39:00,
2013-02-16 10:44:00,28.7,20.2,30.05,NNW,329,0.0,7.0,70,0.00,,---,0.00,VWS V13.01,2013-02-16 15:44:00,
2013-02-16 10:49:00,28.8,19.9,30.05,NNW,329,1.0,7.0,69,0.00,,---,0.00,VWS V13.01,2013-02-16 15:49:00,
2013-02-16 10:54:00,28.9,19.3,30.05,SW,228,2.0,7.0,67,0.00,,---,0.00,VWS V13.01,2013-02-16 15:54:00,
2013-02-16 10:59:00,28.7,18.4,30.04,WNW,292,4.0,7.0,65,0.00,,---,0.00,VWS V13.01,2013-02-16 15:59:00,
2013-02-16 11:04:00,28.4,18.1,30.04,NW,317,0.0,6.0,65,0.00,,---,0.00,VWS V13.01,2013-02-16 16:04:00,
2013-02-16 11:09:00,28.5,18.2,30.04,North,350,2.0,6.0,65,0.00,,---,0.00,VWS V13.01,2013-02-16 16:09:00,
2013-02-16 11:14:00,28.4,18.5,30.04,NNW,328,4.0,6.0,66,0.00,,---,0.00,VWS V13.01,2013-02-16 16:14:00,
2013-02-16 11:19:00,28.1,18.9,30.04,West,277,2.0,7.0,68,0.00,,---,0.00,VWS V13.01,2013-02-16 16:19:00,
2013-02-16 11:24:00,27.9,18.7,30.04,NNW,335,3.0,7.0,68,0.00,,---,0.00,VWS V13.01,2013-02-16 16:24:00,
2013-02-16 11:29:00,27.6,18.8,30.03,NNW,328,3.0,7.0,69,0.00,,---,0.00,VWS V13.01,2013-02-16 16:29:00,
2013-02-16 11:34:00,27.5,19.0,30.03,NNW,331,3.0,6.0,70,0.00,,---,0.00,VWS V13.01,2013-02-16 16:34:00,
2013-02-16 11:39:00,27.6,19.4,30.03,NNW,344,4.0,7.0,71,0.00,,---,0.00,VWS V13.01,2013-02-16 16:39:00,
2013-02-16 11:44:00,27.8,19.6,30.03,North,355,1.0,7.0,71,0.00,,---,0.00,VWS V13.01,2013-02-16 16:44:00,
2013-02-16 11:49:00,28.0,19.8,30.03,NW,308,2.0,7.0,71,0.00,,---,0.00,VWS V13.01,2013-02-16 16:49:00,
2013-02-16 11:54:00,28.1,19.6,30.02,NNW,342,2.0,7.0,70,0.00,,---,0.00,VWS V13.01,2013-02-16 16:54:00,
2013-02-16 11:59:00,28.2,19.0,30.02,NNW,346,1.0,7.0,68,0.00,,---,0.00,VWS V13.01,2013-02-16 16:59:00,
2013-02-16 12:04:00,28.4,19.2,30.02,NW,304,1.0,4.0,68,0.00,,---,0.00,VWS V13.01,2013-02-16 17:04:00,
2013-02-16 12:09:00,28.4,18.5,30.02,NNW,342,2.0,5.0,66,0.00,,---,0.00,VWS V13.01,2013-02-16 17:09:00,
2013-02-16 12:14:00,28.5,19.0,30.02,NW,318,3.0,5.0,67,0.00,,---,0.00,VWS V13.01,2013-02-16 17:14:00,
2013-02-16 12:19:00,28.6,19.4,30.01,NNW,327,0.0,5.0,68,0.00,,---,0.00,VWS V13.01,2013-02-16 17:19:00,
2013-02-16 12:24:00,29.3,19.4,30.01,North,355,1.0,5.0,66,0.00,,---,0.00,VWS V13.01,2013-02-16 17:24:00,
2013-02-16 12:29:00,29.5,18.5,30.00,NW,319,2.0,5.0,63,0.00,,---,0.00,VWS V13.01,2013-02-16 17:29:00,
2013-02-16 12:34:00,29.6,18.6,30.00,NNW,336,1.0,4.0,63,0.00,,---,0.00,VWS V13.01,2013-02-16 17:34:00,
2013-02-16 12:39:00,29.5,18.1,30.00,NNW,340,1.0,5.0,62,0.00,,---,0.00,VWS V13.01,2013-02-16 17:39:00,
2013-02-16 12:44:00,29.4,18.4,30.00,NNE,25,5.0,6.0,63,0.00,,---,0.00,VWS V13.01,2013-02-16 17:44:00,
2013-02-16 12:49:00,29.1,18.1,30.00,NNW,342,0.0,8.0,63,0.00,,---,0.00,VWS V13.01,2013-02-16 17:49:00,
2013-02-16 12:54:00,29.2,18.9,30.00,West,273,2.0,8.0,65,0.00,,---,0.00,VWS V13.01,2013-02-16 17:54:00,
2013-02-16 12:59:00,29.7,18.7,29.99,NW,311,3.0,8.0,63,0.00,,---,0.00,VWS V13.01,2013-02-16 17:59:00,
2013-02-16 13:04:00,29.9,19.2,29.99,WNW,286,2.0,5.0,64,0.00,,---,0.00,VWS V13.01,2013-02-16 18:04:00,
2013-02-16 13:09:00,30.3,19.6,29.99,SW,222,5.0,8.0,64,0.00,,---,0.00,VWS V13.01,2013-02-16 18:09:00,
2013-02-16 13:14:00,30.6,20.2,29.99,WSW,250,7.0,8.0,65,0.00,,---,0.00,VWS V13.01,2013-02-16 18:14:00,
2013-02-16 13:19:00,30.9,20.5,29.99,SW,219,10.0,10.0,65,0.00,,---,0.00,VWS V13.01,2013-02-16 18:19:00,
2013-02-16 13:24:00,30.6,19.5,29.99,SW,236,4.0,10.0,63,0.00,,---,0.00,VWS V13.01,2013-02-16 18:24:00,
2013-02-16 13:29:00,30.3,20.3,29.99,WSW,252,3.0,10.0,66,0.00,,---,0.00,VWS V13.01,2013-02-16 18:29:00,
2013-02-16 13:34:00,30.4,21.1,29.99,WNW,282,3.0,8.0,68,0.00,,---,0.00,VWS V13.01,2013-02-16 18:34:00,
2013-02-16 13:39:00,30.4,21.1,29.99,WSW,237,2.0,9.0,68,0.00,,---,0.00,VWS V13.01,2013-02-16 18:39:00,
2013-02-16 13:44:00,30.2,21.3,29.99,WSW,241,4.0,9.0,69,0.00,,---,0.00,VWS V13.01,2013-02-16 18:44:00,
2013-02-16 13:49:00,29.9,21.3,29.98,WSW,245,7.0,9.0,70,0.00,,---,0.00,VWS V13.01,2013-02-16 18:49:00,
2013-02-16 13:54:00,29.6,21.0,29.98,NW,313,3.0,9.0,70,0.00,,---,0.00,VWS V13.01,2013-02-16 18:54:00,
2013-02-16 13:59:00,29.4,20.5,29.98,West,271,2.0,9.0,69,0.00,,---,0.00,VWS V13.01,2013-02-16 18:59:00,
2013-02-16 14:04:00,29.5,21.3,29.98,SW,215,2.0,6.0,71,0.00,,---,0.00,VWS V13.01,2013-02-16 19:04:00,
2013-02-16 14:09:00,29.4,20.8,29.97,West,263,10.0,10.0,70,0.00,,---,0.00,VWS V13.01,2013-02-16 19:09:00,
2013-02-16 14:14:00,29.3,20.7,29.97,West,265,10.0,10.0,70,0.00,,---,0.00,VWS V13.01,2013-02-16 19:14:00,
2013-02-16 14:19:00,29.0,22.7,29.97,NNW,327,1.0,10.0,77,0.00,,---,0.00,VWS V13.01,2013-02-16 19:19:00,
2013-02-16 14:24:00,28.5,22.5,29.97,WNW,293,5.0,10.0,78,0.00,,---,0.00,VWS V13.01,2013-02-16 19:24:00,
2013-02-16 14:29:00,27.9,21.6,29.98,NW,322,1.0,10.0,77,0.00,,---,0.00,VWS V13.01,2013-02-16 19:29:00,
2013-02-16 14:34:00,27.4,21.5,29.98,NNW,333,4.0,6.0,78,0.00,,---,0.00,VWS V13.01,2013-02-16 19:34:00,
2013-02-16 14:39:00,27.1,21.5,29.97,NW,325,2.0,6.0,79,0.00,,---,0.00,VWS V13.01,2013-02-16 19:39:00,
2013-02-16 14:44:00,27.0,21.1,29.97,NNW,346,4.0,6.0,78,0.00,,---,0.00,VWS V13.01,2013-02-16 19:44:00,
2013-02-16 14:49:00,27.0,21.1,29.98,NW,321,1.0,6.0,78,0.00,,---,0.00,VWS V13.01,2013-02-16 19:49:00,
2013-02-16 14:54:00,27.2,21.3,29.98,WNW,303,3.0,6.0,78,0.00,,---,0.00,VWS V13.01,2013-02-16 19:54:00,
2013-02-16 14:59:00,27.5,21.2,29.98,West,271,3.0,6.0,77,0.00,,---,0.00,VWS V13.01,2013-02-16 19:59:00,
2013-02-16 15:04:00,28.1,20.6,29.98,West,259,4.0,8.0,73,0.00,,---,0.00,VWS V13.01,2013-02-16 20:04:00,
2013-02-16 15:09:00,28.8,19.6,29.98,West,265,3.0,9.0,68,0.00,,---,0.00,VWS V13.01,2013-02-16 20:09:00,
2013-02-16 15:14:00,29.3,19.7,29.97,NW,313,2.0,9.0,67,0.00,,---,0.00,VWS V13.01,2013-02-16 20:14:00,
2013-02-16 15:19:00,29.4,22.1,29.98,NW,310,2.0,9.0,74,0.00,,---,0.00,VWS V13.01,2013-02-16 20:19:00,
2013-02-16 15:24:00,29.1,21.5,29.98,NW,316,4.0,9.0,73,0.00,,---,0.00,VWS V13.01,2013-02-16 20:24:00,
2013-02-16 15:29:00,29.0,21.8,29.98,NNW,342,4.0,9.0,74,0.00,,---,0.00,VWS V13.01,2013-02-16 20:29:00,
2013-02-16 15:34:00,28.8,21.2,29.98,NW,321,3.0,5.0,73,0.00,,---,0.00,VWS V13.01,2013-02-16 20:34:00,
2013-02-16 15:39:00,28.8,21.9,29.97,NE,42,0.0,5.0,75,0.00,,---,0.00,VWS V13.01,2013-02-16 20:39:00,
2013-02-16 15:44:00,29.0,21.4,29.98,NNE,12,2.0,5.0,73,0.00,,---,0.00,VWS V13.01,2013-02-16 20:44:00,
2013-02-16 15:49:00,29.0,21.1,29.97,NNE,33,0.0,5.0,72,0.00,,---,0.00,VWS V13.01,2013-02-16 20:49:00,
2013-02-16 15:54:00,29.2,20.3,29.97,SW,231,1.0,5.0,69,0.00,,---,0.00,VWS V13.01,2013-02-16 20:54:00,
2013-02-16 15:59:00,29.6,21.4,29.97,WSW,252,0.0,5.0,71,0.00,,---,0.00,VWS V13.01,2013-02-16 20:59:00,
2013-02-16 16:04:00,29.7,20.8,29.97,NNW,327,2.0,7.0,69,0.00,,---,0.00,VWS V13.01,2013-02-16 21:04:00,
2013-02-16 16:09:00,29.5,19.9,29.98,NW,317,1.0,7.0,67,0.00,,---,0.00,VWS V13.01,2013-02-16 21:09:00,
2013-02-16 16:14:00,29.4,20.5,29.98,WSW,242,0.0,7.0,69,0.00,,---,0.00,VWS V13.01,2013-02-16 21:14:00,
2013-02-16 16:19:00,29.3,19.4,29.98,WNW,290,2.0,7.0,66,0.00,,---,0.00,VWS V13.01,2013-02-16 21:19:00,
2013-02-16 16:24:00,29.3,19.7,29.98,WSW,244,2.0,7.0,67,0.00,,---,0.00,VWS V13.01,2013-02-16 21:24:00,
2013-02-16 16:29:00,29.2,19.3,29.98,West,275,7.0,8.0,66,0.00,,---,0.00,VWS V13.01,2013-02-16 21:29:00,
2013-02-16 16:34:00,29.0,19.1,29.98,NW,308,2.0,5.0,66,0.00,,---,0.00,VWS V13.01,2013-02-16 21:34:00,
2013-02-16 16:39:00,28.9,18.6,29.98,West,278,6.0,9.0,65,0.00,,---,0.00,VWS V13.01,2013-02-16 21:39:00,
2013-02-16 16:44:00,28.8,19.6,29.98,WSW,251,3.0,10.0,68,0.00,,---,0.00,VWS V13.01,2013-02-16 21:44:00,
2013-02-16 16:49:00,28.7,19.1,29.98,SW,232,6.0,10.0,67,0.00,,---,0.00,VWS V13.01,2013-02-16 21:49:00,
2013-02-16 16:54:00,28.6,19.0,29.97,SSW,201,4.0,10.0,67,0.00,,---,0.00,VWS V13.01,2013-02-16 21:54:00,
2013-02-16 16:59:00,28.5,19.0,29.97,SW,223,0.0,10.0,67,0.00,,---,0.00,VWS V13.01,2013-02-16 21:59:00,
2013-02-16 17:04:00,28.5,19.0,29.97,WSW,238,5.0,7.0,67,0.00,,---,0.00,VWS V13.01,2013-02-16 22:04:00,
2013-02-16 17:09:00,28.3,18.8,29.98,SW,234,4.0,9.0,67,0.00,,---,0.00,VWS V13.01,2013-02-16 22:09:00,
2013-02-16 17:14:00,28.2,19.0,29.98,WSW,241,2.0,10.0,68,0.00,,---,0.00,VWS V13.01,2013-02-16 22:14:00,
2013-02-16 17:19:00,28.0,19.8,29.99,SW,219,5.0,10.0,71,0.00,,---,0.00,VWS V13.01,2013-02-16 22:19:00,
2013-02-16 17:24:00,27.8,20.0,29.99,SSW,205,5.0,10.0,72,0.00,,---,0.00,VWS V13.01,2013-02-16 22:24:00,
2013-02-16 17:29:00,27.6,19.8,29.99,SW,227,6.0,11.0,72,0.00,,---,0.00,VWS V13.01,2013-02-16 22:29:00,
2013-02-16 17:34:00,27.5,20.0,29.99,SW,217,5.0,10.0,73,0.00,,---,0.00,VWS V13.01,2013-02-16 22:34:00,
2013-02-16 17:39:00,27.3,19.8,29.99,SW,218,8.0,10.0,73,0.00,,---,0.00,VWS V13.01,2013-02-16 22:39:00,
2013-02-16 17:44:00,27.3,20.1,29.99,West,280,4.0,10.0,74,0.00,,---,0.00,VWS V13.01,2013-02-16 22:44:00,
2013-02-16 17:49:00,27.2,19.1,29.99,West,259,9.0,11.0,71,0.00,,---,0.00,VWS V13.01,2013-02-16 22:49:00,
2013-02-16 17:54:00,27.1,18.6,29.99,WSW,254,6.0,11.0,70,0.00,,---,0.00,VWS V13.01,2013-02-16 22:54:00,
2013-02-16 18:00:00,27.0,18.5,29.99,West,273,3.0,11.0,70,0.00,,---,0.00,VWS V13.01,2013-02-16 23:00:00,
2013-02-16 18:05:00,27.0,19.2,29.99,West,279,3.0,7.0,72,0.00,,---,0.00,VWS V13.01,2013-02-16 23:05:00,
2013-02-16 18:10:00,26.9,19.7,29.99,WNW,302,7.0,7.0,74,0.00,,---,0.00,VWS V13.01,2013-02-16 23:10:00,
2013-02-16 18:15:00,26.7,19.2,30.00,NNW,327,4.0,9.0,73,0.00,,---,0.00,VWS V13.01,2013-02-16 23:15:00,
2013-02-16 18:20:00,26.5,19.0,30.00,NNW,339,6.0,10.0,73,0.00,,---,0.00,VWS V13.01,2013-02-16 23:20:00,
2013-02-16 18:25:00,26.3,18.8,30.00,NNW,338,2.0,10.0,73,0.00,,---,0.00,VWS V13.01,2013-02-16 23:25:00,
2013-02-16 18:30:00,26.3,19.5,30.00,NNW,341,4.0,6.0,75,0.00,,---,0.00,VWS V13.01,2013-02-16 23:30:00,
2013-02-16 18:35:00,26.2,19.7,30.00,NNW,328,4.0,6.0,76,0.00,,---,0.00,VWS V13.01,2013-02-16 23:35:00,
2013-02-16 18:40:00,26.1,19.9,30.00,NW,307,5.0,9.0,77,0.00,,---,0.00,VWS V13.01,2013-02-16 23:40:00,
2013-02-16 18:45:00,25.8,20.2,30.00,NNW,327,4.0,9.0,79,0.00,,---,0.00,VWS V13.01,2013-02-16 23:45:00,
2013-02-16 18:50:00,25.6,20.3,30.00,NW,314,3.0,9.0,80,0.00,,---,0.00,VWS V13.01,2013-02-16 23:50:00,
2013-02-16 18:55:00,25.5,19.9,30.00,WNW,292,4.0,9.0,79,0.00,,---,0.00,VWS V13.01,2013-02-16 23:55:00,
2013-02-16 19:00:00,25.5,19.6,30.00,NW,318,0.0,2.0,78,0.00,,---,0.00,VWS V13.01,2013-02-17 00:00:00,
2013-02-16 19:05:00,25.5,19.3,30.00,WNW,286,1.0,3.0,77,0.00,,---,0.00,VWS V13.01,2013-02-17 00:05:00,
2013-02-16 19:10:00,25.5,19.0,30.00,NW,323,1.0,4.0,76,0.00,,---,0.00,VWS V13.01,2013-02-17 00:10:00,
2013-02-16 19:15:00,25.5,18.7,30.00,WNW,285,0.0,6.0,75,0.00,,---,0.00,VWS V13.01,2013-02-17 00:15:00,
2013-02-16 19:20:00,25.4,18.6,30.00,NNW,328,3.0,6.0,75,0.00,,---,0.00,VWS V13.01,2013-02-17 00:20:00,
2013-02-16 19:25:00,25.4,18.3,30.00,NW,309,1.0,6.0,74,0.00,,---,0.00,VWS V13.01,2013-02-17 00:25:00,
2013-02-16 19:30:00,25.4,18.3,30.00,NW,306,1.0,2.0,74,0.00,,---,0.00,VWS V13.01,2013-02-17 00:30:00,
2013-02-16 19:35:00,25.3,18.2,30.00,NW,306,2.0,3.0,74,0.00,,---,0.00,VWS V13.01,2013-02-17 00:35:00,
2013-02-16 19:40:00,25.2,18.1,29.99,NW,315,2.0,3.0,74,0.00,,---,0.00,VWS V13.01,2013-02-17 00:40:00,
2013-02-16 19:45:00,25.1,18.0,29.99,NW,315,2.0,3.0,74,0.00,,---,0.00,VWS V13.01,2013-02-17 00:45:00,
2013-02-16 19:50:00,25.1,18.0,29.99,NW,315,2.0,3.0,74,0.00,,---,0.00,VWS V13.01,2013-02-17 00:50:00,
2013-02-16 19:55:00,25.0,17.9,29.99,NW,317,1.0,3.0,74,0.00,,---,0.00,VWS V13.01,2013-02-17 00:55:00,
2013-02-16 20:00:00,24.8,18.0,29.99,NW,307,2.0,2.0,75,0.00,,---,0.00,VWS V13.01,2013-02-17 01:00:00,
2013-02-16 20:05:00,24.7,17.6,29.99,NW,307,0.0,2.0,74,0.00,,---,0.00,VWS V13.01,2013-02-17 01:05:00,
2013-02-16 20:10:00,24.6,17.5,29.99,NW,320,0.0,3.0,74,0.00,,---,0.00,VWS V13.01,2013-02-17 01:10:00,
2013-02-16 20:15:00,24.4,17.6,29.99,NW,320,0.0,3.0,75,0.00,,---,0.00,VWS V13.01,2013-02-17 01:15:00,
2013-02-16 20:20:00,24.2,17.4,29.99,NW,320,0.0,3.0,75,0.00,,---,0.00,VWS V13.01,2013-02-17 01:20:00,
2013-02-16 20:25:00,24.0,17.2,29.99,NW,320,0.0,3.0,75,0.00,,---,0.00,VWS V13.01,2013-02-17 01:25:00,
2013-02-16 20:30:00,23.7,17.0,29.99,NW,320,0.0,0.0,75,0.00,,---,0.00,VWS V13.01,2013-02-17 01:30:00,
2013-02-16 20:35:00,23.4,16.7,29.98,NW,320,0.0,0.0,75,0.00,,---,0.00,VWS V13.01,2013-02-17 01:35:00,
2013-02-16 20:40:00,23.1,16.7,29.98,NW,320,0.0,0.0,76,0.00,,---,0.00,VWS V13.01,2013-02-17 01:40:00,
2013-02-16 20:45:00,22.7,16.6,29.98,NW,320,0.0,1.0,77,0.00,,---,0.00,VWS V13.01,2013-02-17 01:45:00,
2013-02-16 20:50:00,22.4,16.6,29.98,NW,320,0.0,1.0,78,0.00,,---,0.00,VWS V13.01,2013-02-17 01:50:00,
2013-02-16 20:55:00,22.2,16.7,29.98,NW,320,0.0,1.0,79,0.00,,---,0.00,VWS V13.01,2013-02-17 01:55:00,
2013-02-16 21:00:00,22.0,16.5,29.98,NW,320,0.0,1.0,79,0.00,,---,0.00,VWS V13.01,2013-02-17 02:00:00,
2013-02-16 21:05:00,21.7,16.2,29.98,NW,320,0.0,1.0,79,0.00,,---,0.00,VWS V13.01,2013-02-17 02:05:00,
2013-02-16 21:10:00,21.5,16.0,29.98,NW,320,0.0,1.0,79,0.00,,---,0.00,VWS V13.01,2013-02-17 02:10:00,
2013-02-16 21:15:00,21.2,16.0,29.98,NW,320,0.0,1.0,80,0.00,,---,0.00,VWS V13.01,2013-02-17 02:15:00,
2013-02-16 21:20:00,21.0,16.1,29.98,NW,320,0.0,1.0,81,0.00,,---,0.00,VWS V13.01,2013-02-17 02:20:00,
2013-02-16 21:25:00,21.0,16.4,29.98,NW,320,0.0,1.0,82,0.00,,---,0.00,VWS V13.01,2013-02-17 02:25:00,
2013-02-16 21:30:00,20.8,15.9,29.98,NW,320,0.0,0.0,81,0.00,,---,0.00,VWS V13.01,2013-02-17 02:30:00,
2013-02-16 21:35:00,20.7,16.1,29.98,NW,320,0.0,0.0,82,0.00,,---,0.00,VWS V13.01,2013-02-17 02:35:00,
2013-02-16 21:40:00,20.5,15.9,29.98,NW,320,0.0,0.0,82,0.00,,---,0.00,VWS V13.01,2013-02-17 02:40:00,
2013-02-16 21:45:00,20.3,15.7,29.98,NW,320,0.0,0.0,82,0.00,,---,0.00,VWS V13.01,2013-02-17 02:45:00,
2013-02-16 21:50:00,20.2,15.9,29.98,NW,320,0.0,0.0,83,0.00,,---,0.00,VWS V13.01,2013-02-17 02:50:00,
2013-02-16 21:55:00,20.1,15.8,29.98,NW,320,0.0,0.0,83,0.00,,---,0.00,VWS V13.01,2013-02-17 02:55:00,
2013-02-16 22:00:00,20.1,15.8,29.97,NW,320,0.0,0.0,83,0.00,,---,0.00,VWS V13.01,2013-02-17 03:00:00,
2013-02-16 22:05:00,19.9,15.9,29.97,NW,320,0.0,0.0,84,0.00,,---,0.00,VWS V13.01,2013-02-17 03:05:00,
2013-02-16 22:10:00,19.8,15.8,29.97,NW,320,0.0,0.0,84,0.00,,---,0.00,VWS V13.01,2013-02-17 03:10:00,
2013-02-16 22:15:00,19.7,15.7,29.97,NW,320,0.0,1.0,84,0.00,,---,0.00,VWS V13.01,2013-02-17 03:15:00,
2013-02-16 22:20:00,19.5,15.5,29.97,NW,320,0.0,1.0,84,0.00,,---,0.00,VWS V13.01,2013-02-17 03:20:00,
2013-02-16 22:25:00,19.4,15.4,29.97,NW,320,0.0,1.0,84,0.00,,---,0.00,VWS V13.01,2013-02-17 03:25:00,
2013-02-16 22:30:00,19.2,15.4,29.96,NNW,335,1.0,1.0,85,0.00,,---,0.00,VWS V13.01,2013-02-17 03:30:00,
2013-02-16 22:35:00,19.1,15.3,29.96,NNW,344,0.0,2.0,85,0.00,,---,0.00,VWS V13.01,2013-02-17 03:35:00,
2013-02-16 22:40:00,18.8,15.1,29.96,NNW,344,0.0,2.0,85,0.00,,---,0.00,VWS V13.01,2013-02-17 03:40:00,
2013-02-16 22:45:00,18.6,15.1,29.96,NNW,344,0.0,2.0,86,0.00,,---,0.00,VWS V13.01,2013-02-17 03:45:00,
2013-02-16 22:50:00,18.5,15.0,29.96,West,266,0.0,2.0,86,0.00,,---,0.00,VWS V13.01,2013-02-17 03:50:00,
2013-02-16 22:55:00,18.4,15.2,29.96,West,266,0.0,2.0,87,0.00,,---,0.00,VWS V13.01,2013-02-17 03:55:00,
2013-02-16 23:00:00,18.3,15.1,29.96,West,266,0.0,0.0,87,0.00,,---,0.00,VWS V13.01,2013-02-17 04:00:00,
2013-02-16 23:05:00,18.2,15.0,29.96,West,266,0.0,0.0,87,0.00,,---,0.00,VWS V13.01,2013-02-17 04:05:00,
2013-02-16 23:10:00,18.1,15.1,29.96,West,266,0.0,0.0,88,0.00,,---,0.00,VWS V13.01,2013-02-17 04:10:00,
2013-02-16 23:15:00,18.1,15.1,29.96,West,266,0.0,0.0,88,0.00,,---,0.00,VWS V13.01,2013-02-17 04:15:00,
2013-02-16 23:20:00,18.1,15.1,29.96,West,266,0.0,0.0,88,0.00,,---,0.00,VWS V13.01,2013-02-17 04:20:00,
2013-02-16 23:25:00,18.0,15.1,29.96,West,266,0.0,0.0,88,0.00,,---,0.00,VWS V13.01,2013-02-17 04:25:00,
2013-02-16 23:30:00,17.9,14.9,29.96,West,266,0.0,0.0,88,0.00,,---,0.00,VWS V13.01,2013-02-17 04:30:00,
2013-02-16 23:35:00,17.9,14.9,29.96,West,266,0.0,1.0,88,0.00,,---,0.00,VWS V13.01,2013-02-17 04:35:00,
2013-02-16 23:40:00,18.0,15.3,29.96,West,261,0.0,1.0,89,0.00,,---,0.00,VWS V13.01,2013-02-17 04:40:00,
2013-02-16 23:45:00,18.1,15.4,29.95,West,261,0.0,1.0,89,0.00,,---,0.00,VWS V13.01,2013-02-17 04:45:00,
2013-02-16 23:50:00,18.1,15.4,29.95,West,261,0.0,1.0,89,0.00,,---,0.00,VWS V13.01,2013-02-17 04:50:00,
2013-02-16 23:55:00,18.0,15.1,29.95,West,261,0.0,1.0,88,0.00,,---,0.00,VWS V13.01,2013-02-17 04:55:00,